Location: Antichan
(42.9728°N, 0.6667°E)
Time: 17:51:22
(UTC+00:00)

OBJECT-B - Pass Details

Date: 15 August 2020
Orbit: 422 x 433 km, 97.0° (Epoch: 16 September)

Event Time Altitude Azimuth Distance (km) Brightness Sun altitude
Exits shadow 21:03:12 - 220° (SW) 1,703 3.8 -20.2°
Reaches altitude 10° 21:03:47 10° 227° (SW) 1,532 3.6 -20.2°
Maximum altitude 21:05:53 16° 267° (W) 1,224 3.6 -20.5°
Drops below altitude 10° 21:07:59 10° 307° (NW) 1,537 4.8 -20.8°
Sets 21:10:36 0° 330° (NNW) 2,408 6.0 -21.1°
